,�O�C���x,�����t���O,�O�C���x,�����t���O,�󒲎����x,�����t���O,�󒲎����x,�����t���O,��󒲎����x,�����t���O,����,�����t���O
2003/11/1 0:00,18.6,0,62,0,=,2,=,2,23,0,20.3,0
2003/11/1 0:15,18.4,0,63,0,=,2,=,2,23,0,20.3,0
2003/11/1 0:30,18.3,0,62,0,=,2,=,2,23,0,20.4,0
2003/11/1 0:45,18.4,0,61,0,=,2,=,2,23,0,20.4,0
2003/11/1 1:00,18.3,0,63,0,=,2,=,2,23,0,20.4,0
2003/11/1 1:15,18.4,0,62,0,=,2,=,2,23,0,20.5,0
2003/11/1 1:30,18.3,0,62,0,=,2,=,2,23,0,20.5,0
2003/11/1 1:45,18.4,0,62,0,=,2,=,2,23,0,20.5,0
2003/11/1 2:00,18.3,0,62,0,=,2,=,2,23,0,20.6,0
2003/11/1 2:15,18.3,0,62,0,=,2,=,2,23,0,20.6,0
2003/11/1 2:30,18.2,0,63,0,=,2,=,2,23,0,20.4,0
2003/11/1 2:45,18.1,0,64,0,=,2,=,2,23,0,20.4,0
2003/11/1 3:00,18.1,0,64,0,=,2,=,2,23,0,20.4,0
2003/11/1 3:15,18.1,0,64,0,=,2,=,2,23.1,0,20.5,0
2003/11/1 3:30,18,0,64,0,=,2,=,2,23,0,20.5,0
2003/11/1 3:45,18.1,0,64,0,=,2,=,2,23,0,20.5,0
2003/11/1 4:00,18.2,0,64,0,=,2,=,2,23,0,20.6,0
2003/11/1 4:15,18.3,0,63,0,=,2,=,2,23,0,20.6,0
2003/11/1 4:30,18.3,0,64,0,=,2,=,2,23,0,20.6,0
2003/11/1 4:45,18.5,0,64,0,=,2,=,2,23,0,20.7,0
2003/11/1 5:00,18.3,0,64,0,=,2,=,2,23,0,20.7,0
2003/11/1 5:15,18.3,0,64,0,=,2,=,2,23,0,20.7,0
2003/11/1 5:30,18.2,0,66,0,=,2,=,2,23,0,20.7,0
2003/11/1 5:45,18.3,0,65,0,=,2,=,2,23,0,20.8,0
2003/11/1 6:00,18.4,0,65,0,=,2,=,2,23,0,20.8,0
2003/11/1 6:15,18.4,0,65,0,=,2,=,2,23,0,20.8,0
2003/11/1 6:30,18.5,0,65,0,=,2,=,2,23,0,20.9,0
2003/11/1 6:45,18.6,0,65,0,=,2,=,2,23,0,20.9,0
2003/11/1 7:00,18.6,0,65,0,=,2,=,2,23,0,20.9,0
2003/11/1 7:15,18.7,0,65,0,=,2,=,2,23,0,21,0
2003/11/1 7:30,18.9,0,64,0,=,2,=,2,23,0,21,0
2003/11/1 7:45,19,0,64,0,=,2,=,2,23,0,21,0
2003/11/1 8:00,19.1,0,65,0,=,2,=,2,23,0,21,0
2003/11/1 8:15,19.6,0,64,0,=,2,=,2,23,0,21.1,0
2003/11/1 8:30,19.7,0,64,0,=,2,=,2,23.1,0,21.1,0
2003/11/1 8:45,19.9,0,65,0,=,2,=,2,23.1,0,20.4,0
2003/11/1 9:00,20.1,0,64,0,=,2,=,2,23.1,0,20.2,0
2003/11/1 9:15,20.5,0,63,0,=,2,=,2,23.2,0,20.2,0
2003/11/1 9:30,20.9,0,61,0,=,2,=,2,23.2,0,20.3,0
2003/11/1 9:45,21.7,0,60,0,=,2,=,2,23.2,0,19.9,0
2003/11/1 10:00,21.8,0,57,0,=,2,=,2,23.3,0,19.9,0
2003/11/1 10:15,21.7,0,57,0,=,2,=,2,23.3,0,19.8,0
2003/11/1 10:30,21.8,0,58,0,=,2,=,2,23.3,0,19.6,0
2003/11/1 10:45,22.4,0,54,0,=,2,=,2,23.4,0,19.6,0
2003/11/1 11:00,22.4,0,54,0,=,2,=,2,23.5,0,19.7,0
2003/11/1 11:15,22.4,0,53,0,=,2,=,2,23.5,0,19.6,0
2003/11/1 11:30,22.7,0,50,0,=,2,=,2,23.5,0,19.6,0
2003/11/1 11:45,23,0,49,0,=,2,=,2,23.5,0,19.6,0
2003/11/1 12:00,22.9,0,49,0,=,2,=,2,23.6,0,19.7,0
2003/11/1 12:15,22.7,0,50,0,=,2,=,2,23.6,0,19.7,0
2003/11/1 12:30,22.7,0,50,0,=,2,=,2,23.6,0,19.7,0
2003/11/1 12:45,22.6,0,49,0,=,2,=,2,23.6,0,19.8,0
2003/11/1 13:00,22.6,0,50,0,=,2,=,2,23.6,0,19.8,0
2003/11/1 13:15,22.6,0,51,0,=,2,=,2,23.6,0,19.8,0
2003/11/1 13:30,22.5,0,52,0,=,2,=,2,23.6,0,19.9,0
2003/11/1 13:45,22.6,0,52,0,=,2,=,2,23.6,0,19.9,0
2003/11/1 14:00,22.6,0,53,0,=,2,=,2,23.6,0,20.1,0
2003/11/1 14:15,22.3,0,60,0,=,2,=,2,23.6,0,20.1,0
2003/11/1 14:30,22.2,0,62,0,=,2,=,2,23.6,0,20.2,0
2003/11/1 14:45,21.8,0,66,0,=,2,=,2,23.6,0,20.2,0
2003/11/1 15:00,21.8,0,65,0,=,2,=,2,23.6,0,20.2,0
2003/11/1 15:15,21.8,0,66,0,=,2,=,2,23.6,0,20.3,0
2003/11/1 15:30,21.8,0,67,0,=,2,=,2,23.7,0,20.1,0
2003/11/1 15:45,21.8,0,68,0,=,2,=,2,23.6,0,20,0
2003/11/1 16:00,21.7,0,68,0,=,2,=,2,23.6,0,20,0
2003/11/1 16:15,21.6,0,69,0,=,2,=,2,23.6,0,20.1,0
2003/11/1 16:30,21.5,0,69,0,=,2,=,2,23.6,0,20.1,0
2003/11/1 16:45,21.5,0,68,0,=,2,=,2,23.6,0,20.1,0
2003/11/1 17:00,21.5,0,67,0,=,2,=,2,23.6,0,20.2,0
2003/11/1 17:15,21.5,0,66,0,=,2,=,2,23.6,0,20.2,0
2003/11/1 17:30,21.4,0,67,0,=,2,=,2,23.6,0,20.2,0
2003/11/1 17:45,21.4,0,70,0,=,2,=,2,23.6,0,20.6,0
2003/11/1 18:00,21.4,0,70,0,=,2,=,2,23.6,0,20.7,0
2003/11/1 18:15,21.4,0,72,0,=,2,=,2,23.6,0,20.7,0
2003/11/1 18:30,21,0,75,0,=,2,=,2,23.6,0,20.7,0
2003/11/1 18:45,20.6,0,79,0,=,2,=,2,23.6,0,20.6,0
2003/11/1 19:00,20.5,0,78,0,=,2,=,2,23.5,0,20.6,0
2003/11/1 19:15,20.5,0,79,0,=,2,=,2,23.6,0,20.6,0
2003/11/1 19:30,20.4,0,81,0,=,2,=,2,23.5,0,20.7,0
2003/11/1 19:45,20,0,84,0,=,2,=,2,23.5,0,20.7,0
2003/11/1 20:00,20.1,0,85,0,=,2,=,2,23.5,0,20.7,0
2003/11/1 20:15,20.1,0,86,0,=,2,=,2,23.5,0,20.6,0
2003/11/1 20:30,20.1,0,86,0,=,2,=,2,23.5,0,20.6,0
2003/11/1 20:45,20.1,0,86,0,=,2,=,2,23.5,0,20.6,0
2003/11/1 21:00,20.2,0,85,0,=,2,=,2,23.5,0,20.7,0
2003/11/1 21:15,20.1,0,86,0,=,2,=,2,23.5,0,20.7,0
2003/11/1 21:30,20.1,0,86,0,=,2,=,2,23.5,0,20.7,0
2003/11/1 21:45,20.3,0,86,0,=,2,=,2,23.5,0,20.8,0
2003/11/1 22:00,20.1,0,86,0,=,2,=,2,23.4,0,20.8,0
2003/11/1 22:15,20.1,0,85,0,=,2,=,2,23.4,0,20.8,0
2003/11/1 22:30,20.1,0,84,0,=,2,=,2,23.4,0,20.9,0
2003/11/1 22:45,20.1,0,84,0,=,2,=,2,23.4,0,20.9,0
2003/11/1 23:00,20.1,0,83,0,=,2,=,2,23.4,0,20.9,0
2003/11/1 23:15,20.1,0,83,0,=,2,=,2,23.4,0,20.9,0
2003/11/1 23:30,20.2,0,83,0,=,2,=,2,23.4,0,21,0
2003/11/1 23:45,20.2,0,84,0,=,2,=,2,23.4,0,21,0
2003/11/2 0:00,20.1,0,84,0,=,2,=,2,23.4,0,20.5,0
2003/11/2 0:15,20.2,0,84,0,=,2,=,2,23.4,0,20.6,0
2003/11/2 0:30,20.1,0,82,0,=,2,=,2,23.4,0,20.6,0
2003/11/2 0:45,20.1,0,82,0,=,2,=,2,23.4,0,20.6,0
2003/11/2 1:00,20.1,0,83,0,=,2,=,2,23.5,0,20.7,0
2003/11/2 1:15,20,0,84,0,=,2,=,2,23.4,0,20.7,0
2003/11/2 1:30,20,0,85,0,=,2,=,2,23.4,0,20.4,0
2003/11/2 1:45,19.9,0,86,0,=,2,=,2,23.4,0,20.5,0
2003/11/2 2:00,19.8,0,87,0,=,2,=,2,23.4,0,20.5,0
2003/11/2 2:15,20,0,86,0,=,2,=,2,23.4,0,20.5,0
2003/11/2 2:30,19.9,0,86,0,=,2,=,2,23.4,0,20.6,0
2003/11/2 2:45,19.9,0,86,0,=,2,=,2,23.4,0,20.6,0
2003/11/2 3:00,20.1,0,85,0,=,2,=,2,23.4,0,20.6,0
2003/11/2 3:15,19.9,0,86,0,=,2,=,2,23.4,0,20.7,0
2003/11/2 3:30,19.9,0,86,0,=,2,=,2,23.4,0,20.7,0
2003/11/2 3:45,19.8,0,87,0,=,2,=,2,23.4,0,20.7,0
2003/11/2 4:00,19.6,0,88,0,=,2,=,2,23.5,0,20.7,0
2003/11/2 4:15,19.5,0,89,0,=,2,=,2,23.5,0,20.8,0
2003/11/2 4:30,19.5,0,89,0,=,2,=,2,23.4,0,20.8,0
2003/11/2 4:45,19.5,0,89,0,=,2,=,2,23.4,0,20.8,0
2003/11/2 5:00,19.4,0,89,0,=,2,=,2,23.4,0,20.9,0
2003/11/2 5:15,19.5,0,89,0,=,2,=,2,23.4,0,20.9,0
2003/11/2 5:30,19.5,0,89,0,=,2,=,2,23.4,0,20.9,0
2003/11/2 5:45,19.4,0,88,0,=,2,=,2,23.4,0,21,0
2003/11/2 6:00,19.4,0,87,0,=,2,=,2,23.4,0,21,0
2003/11/2 6:15,19.2,0,88,0,=,2,=,2,23.4,0,21,0
2003/11/2 6:30,19.2,0,89,0,=,2,=,2,23.4,0,21.1,0
2003/11/2 6:45,19.1,0,88,0,=,2,=,2,23.4,0,21.1,0
2003/11/2 7:00,19.1,0,88,0,=,2,=,2,23.4,0,21.1,0
2003/11/2 7:15,19.2,0,88,0,=,2,=,2,23.4,0,21.1,0
2003/11/2 7:30,19.3,0,89,0,=,2,=,2,23.4,0,21.2,0
2003/11/2 7:45,19.3,0,88,0,=,2,=,2,23.4,0,21.2,0
2003/11/2 8:00,19.5,0,88,0,=,2,=,2,23.4,0,21.2,0
2003/11/2 8:15,19.8,0,87,0,=,2,=,2,23.4,0,21.3,0
2003/11/2 8:30,19.8,0,86,0,=,2,=,2,23.4,0,21.3,0
2003/11/2 8:45,20.1,0,85,0,=,2,=,2,23.4,0,21.3,0
2003/11/2 9:00,20.3,0,84,0,=,2,=,2,23.4,0,21.3,0
2003/11/2 9:15,20.5,0,83,0,=,2,=,2,23.4,0,21.4,0
2003/11/2 9:30,20.7,0,82,0,=,2,=,2,23.4,0,21.4,0
2003/11/2 9:45,20.9,0,81,0,=,2,=,2,23.4,0,21.4,0
2003/11/2 10:00,21.1,0,80,0,=,2,=,2,23.5,0,21.5,0
2003/11/2 10:15,21.3,0,77,0,=,2,=,2,23.5,0,21.5,0
2003/11/2 10:30,21.4,0,74,0,=,2,=,2,23.5,0,21.2,0
2003/11/2 10:45,21.6,0,75,0,=,2,=,2,23.5,0,21.2,0
2003/11/2 11:00,21.6,0,75,0,=,2,=,2,23.5,0,21.2,0
2003/11/2 11:15,21.6,0,73,0,=,2,=,2,23.5,0,20.4,0
2003/11/2 11:30,21.8,0,74,0,=,2,=,2,23.5,0,20.5,0
2003/11/2 11:45,21.8,0,73,0,=,2,=,2,23.5,0,20.5,0
2003/11/2 12:00,22.1,0,70,0,=,2,=,2,23.5,0,20.5,0
2003/11/2 12:15,22,0,72,0,=,2,=,2,23.5,0,20.6,0
2003/11/2 12:30,22.1,0,69,0,=,2,=,2,23.6,0,20.6,0
2003/11/2 12:45,22.2,0,69,0,=,2,=,2,23.6,0,20.6,0
2003/11/2 13:00,22.2,0,68,0,=,2,=,2,23.6,0,20.7,0
2003/11/2 13:15,22.3,0,68,0,=,2,=,2,23.6,0,20.7,0
2003/11/2 13:30,22.1,0,68,0,=,2,=,2,23.6,0,20.7,0
2003/11/2 13:45,22,0,69,0,=,2,=,2,23.6,0,20.8,0
2003/11/2 14:00,22.2,0,68,0,=,2,=,2,23.6,0,20.8,0
2003/11/2 14:15,22.3,0,68,0,=,2,=,2,23.7,0,20.8,0
2003/11/2 14:30,22.3,0,69,0,=,2,=,2,23.7,0,20.6,0
2003/11/2 14:45,22.2,0,70,0,=,2,=,2,23.7,0,20.6,0
2003/11/2 15:00,22.1,0,71,0,=,2,=,2,23.8,0,20.7,0
2003/11/2 15:15,22.1,0,72,0,=,2,=,2,23.8,0,20.7,0
2003/11/2 15:30,22,0,74,0,=,2,=,2,23.8,0,20.7,0
2003/11/2 15:45,21.8,0,73,0,=,2,=,2,23.8,0,20.7,0
2003/11/2 16:00,21.9,0,72,0,=,2,=,2,23.8,0,20.8,0
2003/11/2 16:15,21.9,0,72,0,=,2,=,2,23.8,0,20.8,0
2003/11/2 16:30,21.8,0,74,0,=,2,=,2,23.8,0,20.8,0
2003/11/2 16:45,21.8,0,73,0,=,2,=,2,23.8,0,20.9,0
2003/11/2 17:00,21.6,0,72,0,=,2,=,2,23.8,0,20.9,0
2003/11/2 17:15,21.7,0,73,0,=,2,=,2,23.8,0,20.9,0
2003/11/2 17:30,21.6,0,74,0,=,2,=,2,23.8,0,21,0
2003/11/2 17:45,21.7,0,74,0,=,2,=,2,23.8,0,21,0
2003/11/2 18:00,21.6,0,75,0,=,2,=,2,23.8,0,21,0
2003/11/2 18:15,21.6,0,75,0,=,2,=,2,23.8,0,21.1,0
2003/11/2 18:30,21.6,0,75,0,=,2,=,2,23.8,0,21.1,0
2003/11/2 18:45,21.6,0,76,0,=,2,=,2,23.8,0,21.1,0
2003/11/2 19:00,21.7,0,76,0,=,2,=,2,23.8,0,21.2,0
2003/11/2 19:15,21.7,0,76,0,=,2,=,2,23.8,0,21.2,0
2003/11/2 19:30,21.6,0,77,0,=,2,=,2,23.8,0,21.2,0
2003/11/2 19:45,21.7,0,78,0,=,2,=,2,23.8,0,21.3,0
2003/11/2 20:00,21.5,0,79,0,=,2,=,2,23.8,0,21.3,0
2003/11/2 20:15,21.5,0,80,0,=,2,=,2,23.8,0,21.3,0
2003/11/2 20:30,21.4,0,80,0,=,2,=,2,23.8,0,21.4,0
2003/11/2 20:45,21.5,0,80,0,=,2,=,2,23.8,0,21.4,0
2003/11/2 21:00,21.4,0,81,0,=,2,=,2,23.8,0,21.4,0
2003/11/2 21:15,21.4,0,81,0,=,2,=,2,23.8,0,21.3,0
2003/11/2 21:30,21.4,0,81,0,=,2,=,2,23.8,0,21.3,0
2003/11/2 21:45,21.4,0,81,0,=,2,=,2,23.8,0,21.4,0
2003/11/2 22:00,21.4,0,81,0,=,2,=,2,23.8,0,21.4,0
2003/11/2 22:15,21.5,0,81,0,=,2,=,2,23.8,0,21.4,0
2003/11/2 22:30,21.5,0,80,0,=,2,=,2,23.8,0,21.4,0
2003/11/2 22:45,21.5,0,83,0,=,2,=,2,23.8,0,21.5,0
2003/11/2 23:00,21.4,0,85,0,=,2,=,2,23.8,0,21.5,0
2003/11/2 23:15,21.2,0,86,0,=,2,=,2,23.8,0,21.5,0
2003/11/2 23:30,21.2,0,87,0,=,2,=,2,23.8,0,21.5,0
2003/11/2 23:45,21.2,0,86,0,=,2,=,2,23.9,0,21.6,0
2003/11/3 0:00,21.4,0,86,0,=,2,=,2,23.9,0,21.6,0
2003/11/3 0:15,21.3,0,88,0,=,2,=,2,23.9,0,21.6,0
2003/11/3 0:30,21.1,0,89,0,=,2,=,2,23.9,0,21.7,0
2003/11/3 0:45,20.5,0,86,0,=,2,=,2,23.9,0,21.7,0
2003/11/3 1:00,20.3,0,86,0,=,2,=,2,23.9,0,21.7,0
2003/11/3 1:15,20.1,0,86,0,=,2,=,2,23.9,0,21.7,0
2003/11/3 1:30,20.1,0,84,0,=,2,=,2,23.9,0,21.8,0
2003/11/3 1:45,20.2,0,84,0,=,2,=,2,23.9,0,21.8,0
2003/11/3 2:00,20.1,0,85,0,=,2,=,2,23.9,0,21.8,0
2003/11/3 2:15,20.1,0,84,0,=,2,=,2,23.9,0,21.8,0
2003/11/3 2:30,20.2,0,84,0,=,2,=,2,23.9,0,21.8,0
2003/11/3 2:45,20.2,0,85,0,=,2,=,2,23.9,0,21.9,0
2003/11/3 3:00,20,0,87,0,=,2,=,2,23.8,0,21.9,0
2003/11/3 3:15,20.1,0,88,0,=,2,=,2,23.9,0,21.9,0
2003/11/3 3:30,19.8,0,89,0,=,2,=,2,23.9,0,21.8,0
2003/11/3 3:45,19.7,0,88,0,=,2,=,2,23.8,0,21.6,0
2003/11/3 4:00,19.6,0,88,0,=,2,=,2,23.9,0,21.6,0
2003/11/3 4:15,19.7,0,87,0,=,2,=,2,23.9,0,21.6,0
2003/11/3 4:30,19.9,0,86,0,=,2,=,2,23.8,0,21.6,0
2003/11/3 4:45,19.5,0,86,0,=,2,=,2,23.8,0,21.6,0
2003/11/3 5:00,19.5,0,86,0,=,2,=,2,23.8,0,21.7,0
2003/11/3 5:15,19.6,0,84,0,=,2,=,2,23.8,0,21.5,0
2003/11/3 5:30,19.6,0,84,0,=,2,=,2,23.8,0,21.5,0
2003/11/3 5:45,19.6,0,84,0,=,2,=,2,23.8,0,21.5,0
2003/11/3 6:00,19.5,0,85,0,=,2,=,2,23.8,0,21.6,0
2003/11/3 6:15,19.8,0,84,0,=,2,=,2,23.8,0,21.6,0
2003/11/3 6:30,19.8,0,84,0,=,2,=,2,23.8,0,21.6,0
2003/11/3 6:45,19.9,0,83,0,=,2,=,2,23.8,0,21.6,0
2003/11/3 7:00,20,0,83,0,=,2,=,2,23.8,0,21.7,0
2003/11/3 7:15,20.1,0,83,0,=,2,=,2,23.8,0,21.7,0
2003/11/3 7:30,20,0,84,0,=,2,=,2,23.8,0,21.7,0
2003/11/3 7:45,19.9,0,84,0,=,2,=,2,23.8,0,21.7,0
2003/11/3 8:00,19.9,0,83,0,=,2,=,2,23.8,0,21.8,0
2003/11/3 8:15,20.1,0,82,0,=,2,=,2,23.8,0,21.8,0
2003/11/3 8:30,20.1,0,82,0,=,2,=,2,23.8,0,21.8,0
2003/11/3 8:45,20.2,0,82,0,=,2,=,2,23.8,0,21.8,0
2003/11/3 9:00,20.4,0,81,0,=,2,=,2,23.8,0,21.9,0
2003/11/3 9:15,20.6,0,80,0,=,2,=,2,23.8,0,21.9,0
2003/11/3 9:30,20.6,0,80,0,=,2,=,2,23.8,0,21.9,0
2003/11/3 9:45,20.7,0,79,0,=,2,=,2,23.8,0,21.9,0
2003/11/3 10:00,20.7,0,78,0,=,2,=,2,23.8,0,21.9,0
2003/11/3 10:15,21,0,78,0,=,2,=,2,23.8,0,22,0
2003/11/3 10:30,21,0,78,0,=,2,=,2,23.8,0,22,0
2003/11/3 10:45,20.9,0,79,0,=,2,=,2,23.8,0,22,0
2003/11/3 11:00,21.1,0,78,0,=,2,=,2,23.8,0,22,0
2003/11/3 11:15,21.4,0,78,0,=,2,=,2,23.9,0,22.1,0
2003/11/3 11:30,21.3,0,77,0,=,2,=,2,23.9,0,22.1,0
2003/11/3 11:45,21.5,0,78,0,=,2,=,2,23.9,0,22.4,0
2003/11/3 12:00,21.5,0,78,0,=,2,=,2,23.9,0,21.7,0
2003/11/3 12:15,21.5,0,78,0,=,2,=,2,23.9,0,21.7,0
2003/11/3 12:30,21.5,0,77,0,=,2,=,2,23.9,0,21.8,0
2003/11/3 12:45,21.5,0,78,0,=,2,=,2,23.9,0,20.7,0
2003/11/3 13:00,21.5,0,74,0,=,2,=,2,23.9,0,20.8,0
2003/11/3 13:15,21.6,0,75,0,=,2,=,2,24,0,20.8,0
2003/11/3 13:30,21.6,0,74,0,=,2,=,2,24,0,20.8,0
2003/11/3 13:45,21.6,0,72,0,=,2,=,2,24,0,20.9,0
2003/11/3 14:00,21.8,0,70,0,=,2,=,2,24,0,20.9,0
2003/11/3 14:15,21.8,0,69,0,=,2,=,2,24,0,21,0
2003/11/3 14:30,22.1,0,66,0,=,2,=,2,24.1,0,21,0
2003/11/3 14:45,22.1,0,63,0,=,2,=,2,24,0,21,0
2003/11/3 15:00,22.1,0,59,0,=,2,=,2,24.1,0,21.1,0
2003/11/3 15:15,22.1,0,59,0,=,2,=,2,24.1,0,21.1,0
2003/11/3 15:30,22.1,0,60,0,=,2,=,2,24.1,0,21.1,0
2003/11/3 15:45,21.8,0,63,0,=,2,=,2,24.1,0,21.2,0
2003/11/3 16:00,21.9,0,64,0,=,2,=,2,24.1,0,21.2,0
2003/11/3 16:15,21.9,0,64,0,=,2,=,2,24.1,0,21.3,0
2003/11/3 16:30,21.8,0,65,0,=,2,=,2,24.1,0,21.4,0
2003/11/3 16:45,21.6,0,67,0,=,2,=,2,24,0,21.4,0
2003/11/3 17:00,21.6,0,68,0,=,2,=,2,24,0,21.5,0
2003/11/3 17:15,21.5,0,67,0,=,2,=,2,24,0,21.5,0
2003/11/3 17:30,21.4,0,66,0,=,2,=,2,24,0,21.5,0
2003/11/3 17:45,21.3,0,69,0,=,2,=,2,24,0,21.6,0
2003/11/3 18:00,21.3,0,70,0,=,2,=,2,23.9,0,21.6,0
2003/11/3 18:15,21.1,0,71,0,=,2,=,2,23.9,0,21.6,0
2003/11/3 18:30,21.1,0,69,0,=,2,=,2,23.9,0,21.6,0
2003/11/3 18:45,20.9,0,69,0,=,2,=,2,23.9,0,21.7,0
2003/11/3 19:00,20.9,0,70,0,=,2,=,2,23.9,0,21.7,0
2003/11/3 19:15,21.1,0,70,0,=,2,=,2,23.9,0,21.1,0
2003/11/3 19:30,21,0,71,0,=,2,=,2,23.9,0,21.2,0
2003/11/3 19:45,20.9,0,71,0,=,2,=,2,23.9,0,21.2,0
2003/11/3 20:00,20.8,0,72,0,=,2,=,2,23.9,0,21.2,0
2003/11/3 20:15,20.9,0,73,0,=,2,=,2,24,0,21.3,0
2003/11/3 20:30,20.9,0,74,0,=,2,=,2,24,0,21.3,0
2003/11/3 20:45,20.8,0,74,0,=,2,=,2,24.1,0,21.3,0
2003/11/3 21:00,20.8,0,74,0,=,2,=,2,24.1,0,21.4,0
2003/11/3 21:15,20.9,0,73,0,=,2,=,2,24.2,0,21.4,0
2003/11/3 21:30,20.7,0,73,0,=,2,=,2,24.2,0,21.4,0
2003/11/3 21:45,20.6,0,74,0,=,2,=,2,24.2,0,21.4,0
2003/11/3 22:00,20.5,0,73,0,=,2,=,2,24.3,0,21.5,0
2003/11/3 22:15,20.3,0,67,0,=,2,=,2,24.3,0,21.5,0
2003/11/3 22:30,20.4,0,66,0,=,2,=,2,24.3,0,21.5,0
2003/11/3 22:45,20.4,0,64,0,=,2,=,2,24.3,0,21.6,0
2003/11/3 23:00,20.3,0,63,0,=,2,=,2,24.4,0,21.6,0
2003/11/3 23:15,20.1,0,63,0,=,2,=,2,24.4,0,21.3,0
2003/11/3 23:30,20.2,0,63,0,=,2,=,2,24.4,0,21.3,0
2003/11/3 23:45,20,0,64,0,=,2,=,2,24.4,0,21.4,0
2003/11/4 0:00,19.9,0,63,0,=,2,=,2,24.4,0,21.4,0
2003/11/4 0:15,19.9,0,63,0,=,2,=,2,24.4,0,21.4,0
2003/11/4 0:30,19.8,0,63,0,=,2,=,2,24.4,0,21.5,0
2003/11/4 0:45,20,0,62,0,=,2,=,2,24.4,0,21.5,0
2003/11/4 1:00,19.9,0,63,0,=,2,=,2,24.4,0,21.5,0
2003/11/4 1:15,19.9,0,70,0,=,2,=,2,24.4,0,21.6,0
2003/11/4 1:30,19.9,0,70,0,=,2,=,2,24.5,0,21.6,0
2003/11/4 1:45,19.8,0,71,0,=,2,=,2,24.5,0,21.6,0
2003/11/4 2:00,19.7,0,71,0,=,2,=,2,24.5,0,21.7,0
2003/11/4 2:15,19.5,0,70,0,=,2,=,2,24.5,0,21.3,0
2003/11/4 2:30,19.5,0,69,0,=,2,=,2,24.4,0,21.3,0
2003/11/4 2:45,19.4,0,68,0,=,2,=,2,24.4,0,21.3,0
2003/11/4 3:00,19.4,0,66,0,=,2,=,2,24.4,0,21.4,0
2003/11/4 3:15,19.4,0,64,0,=,2,=,2,24.4,0,21.4,0
2003/11/4 3:30,19.1,0,65,0,=,2,=,2,24.4,0,21.4,0
2003/11/4 3:45,19.1,0,65,0,=,2,=,2,24.4,0,21.5,0
2003/11/4 4:00,19.1,0,66,0,=,2,=,2,24.4,0,21.5,0
2003/11/4 4:15,19.2,0,67,0,=,2,=,2,24.4,0,21.6,0
2003/11/4 4:30,19,0,68,0,=,2,=,2,24.4,0,21.6,0
2003/11/4 4:45,19.1,0,68,0,=,2,=,2,24.4,0,21.6,0
2003/11/4 5:00,18.9,0,69,0,=,2,=,2,24.3,0,21.6,0
2003/11/4 5:15,18.9,0,68,0,=,2,=,2,24.3,0,21.7,0
2003/11/4 5:30,19,0,68,0,=,2,=,2,24.3,0,21.7,0
2003/11/4 5:45,19,0,67,0,=,2,=,2,24.3,0,21.7,0
2003/11/4 6:00,19.1,0,67,0,=,2,=,2,24.3,0,21.8,0
2003/11/4 6:15,19.1,0,68,0,=,2,=,2,24.3,0,21.8,0
2003/11/4 6:30,19.1,0,68,0,=,2,=,2,24.3,0,21.8,0
2003/11/4 6:45,18.7,0,70,0,=,2,=,2,24.3,0,21.9,0
2003/11/4 7:00,18.8,0,71,0,=,2,=,2,24.3,0,21.9,0
2003/11/4 7:15,18.7,0,70,0,=,2,=,2,24.2,0,21.9,0
2003/11/4 7:30,18.7,0,70,0,=,2,=,2,24.2,0,22,0
2003/11/4 7:45,18.8,0,71,0,=,2,=,2,24.2,0,22,0
2003/11/4 8:00,18.6,0,71,0,=,2,=,2,24.2,0,22,0
2003/11/4 8:15,19,0,72,0,=,2,=,2,24.3,0,21.6,0
2003/11/4 8:30,19.2,0,69,0,=,2,=,2,24.3,0,20.2,0
2003/11/4 8:45,19.2,0,69,0,=,2,=,2,24.3,0,20.3,0
2003/11/4 9:00,19.3,0,68,0,=,2,=,2,24.3,0,20.3,0
2003/11/4 9:15,19.3,0,65,0,=,2,=,2,24.2,0,20.3,0
2003/11/4 9:30,19.4,0,64,0,=,2,=,2,24.2,0,20.4,0
2003/11/4 9:45,19.6,0,61,0,=,2,=,2,24.3,0,20.5,0
2003/11/4 10:00,19.5,0,64,0,=,2,=,2,24.3,0,20.5,0
2003/11/4 10:15,19.4,0,65,0,=,2,=,2,24.3,0,20.5,0
2003/11/4 10:30,19.4,0,62,0,=,2,=,2,24.3,0,20.6,0
2003/11/4 10:45,19.7,0,61,0,=,2,=,2,24.3,0,20.6,0
2003/11/4 11:00,19.8,0,62,0,=,2,=,2,24.3,0,20.7,0
2003/11/4 11:15,19.9,0,64,0,=,2,=,2,24.3,0,20.7,0
2003/11/4 11:30,19.9,0,63,0,=,2,=,2,24.3,0,20.7,0
2003/11/4 11:45,20.1,0,64,0,=,2,=,2,24.3,0,20.8,0
2003/11/4 12:00,20.2,0,65,0,=,2,=,2,24.3,0,20.8,0
2003/11/4 12:15,20.3,0,63,0,=,2,=,2,24.3,0,20.9,0
2003/11/4 12:30,20.1,0,64,0,=,2,=,2,24.3,0,20.9,0
2003/11/4 12:45,20.4,0,62,0,=,2,=,2,24.3,0,20.9,0
2003/11/4 13:00,20.3,0,62,0,=,2,=,2,24.3,0,20.9,0
2003/11/4 13:15,20.4,0,61,0,=,2,=,2,24.3,0,20.9,0
2003/11/4 13:30,20.6,0,61,0,=,2,=,2,24.3,0,21,0
2003/11/4 13:45,20.7,0,61,0,=,2,=,2,24.3,0,21,0
2003/11/4 14:00,20.5,0,61,0,=,2,=,2,24.3,0,21,0
2003/11/4 14:15,20.6,0,61,0,=,2,=,2,24.3,0,21.1,0
2003/11/4 14:30,20.8,0,61,0,=,2,=,2,24.3,0,21.1,0
2003/11/4 14:45,20.9,0,62,0,=,2,=,2,24.3,0,21.3,0
2003/11/4 15:00,21,0,62,0,=,2,=,2,24.3,0,21.6,0
2003/11/4 15:15,20.9,0,61,0,=,2,=,2,24.3,0,21.2,0
2003/11/4 15:30,20.7,0,62,0,=,2,=,2,24.3,0,21.3,0
2003/11/4 15:45,20.6,0,61,0,=,2,=,2,24.3,0,21.3,0
2003/11/4 16:00,20.5,0,62,0,=,2,=,2,24.3,0,21.3,0
2003/11/4 16:15,20.8,0,64,0,=,2,=,2,24.1,0,21.4,0
2003/11/4 16:30,20.3,0,64,0,=,2,=,2,24.2,0,21.4,0
2003/11/4 16:45,20.3,0,64,0,=,2,=,2,24.2,0,21.4,0
2003/11/4 17:00,20.2,0,63,0,=,2,=,2,24.2,0,21.5,0
2003/11/4 17:15,20.1,0,63,0,=,2,=,2,24.2,0,21.5,0
2003/11/4 17:30,20.1,0,64,0,=,2,=,2,24.2,0,21.5,0
2003/11/4 17:45,20.6,0,59,0,=,2,=,2,24.2,0,21.5,0
2003/11/4 18:00,20,0,62,0,=,2,=,2,24.2,0,21.6,0
2003/11/4 18:15,20,0,62,0,=,2,=,2,24.2,0,21.6,0
2003/11/4 18:30,20.2,0,62,0,=,2,=,2,24.2,0,21.5,0
2003/11/4 18:45,20,0,63,0,=,2,=,2,24.2,0,20.8,0
2003/11/4 19:00,19.7,0,67,0,=,2,=,2,24.2,0,20.9,0
2003/11/4 19:15,19.4,0,68,0,=,2,=,2,24.2,0,20.9,0
2003/11/4 19:30,19.5,0,67,0,=,2,=,2,24.2,0,21,0
2003/11/4 19:45,19.7,0,66,0,=,2,=,2,24.2,0,21,0
2003/11/4 20:00,19.5,0,67,0,=,2,=,2,24.2,0,21,0
2003/11/4 20:15,19.7,0,67,0,=,2,=,2,24.2,0,21.1,0
2003/11/4 20:30,19.6,0,67,0,=,2,=,2,24.2,0,21.1,0
2003/11/4 20:45,19.5,0,68,0,=,2,=,2,24.2,0,21.1,0
2003/11/4 21:00,19.4,0,69,0,=,2,=,2,24.2,0,21.2,0
2003/11/4 21:15,19.3,0,70,0,=,2,=,2,24.2,0,20.7,0
2003/11/4 21:30,19.4,0,70,0,=,2,=,2,24.3,0,20.3,0
2003/11/4 21:45,19.2,0,71,0,=,2,=,2,24.3,0,20.3,0
2003/11/4 22:00,19.3,0,70,0,=,2,=,2,24.3,0,20.4,0
2003/11/4 22:15,19.4,0,70,0,=,2,=,2,24.3,0,20.4,0
2003/11/4 22:30,19.3,0,69,0,=,2,=,2,24.3,0,20.5,0
2003/11/4 22:45,18.7,0,73,0,=,2,=,2,24.3,0,20.5,0
2003/11/4 23:00,18.6,0,75,0,=,2,=,2,24.3,0,20.6,0
2003/11/4 23:15,18.7,0,74,0,=,2,=,2,24.3,0,20.6,0
2003/11/4 23:30,19,0,74,0,=,2,=,2,24.3,0,20.6,0
2003/11/4 23:45,18.8,0,74,0,=,2,=,2,24.3,0,20.7,0
2003/11/5 0:00,18.8,0,74,0,=,2,=,2,24.3,0,20.7,0
2003/11/5 0:15,18.9,0,73,0,=,2,=,2,24.3,0,20.8,0
2003/11/5 0:30,18.8,0,73,0,=,2,=,2,24.3,0,20.8,0
2003/11/5 0:45,18.5,0,74,0,=,2,=,2,24.3,0,20.9,0
2003/11/5 1:00,18.5,0,75,0,=,2,=,2,24.3,0,20.9,0
2003/11/5 1:15,18.7,0,75,0,=,2,=,2,24.3,0,20.9,0
2003/11/5 1:30,18.7,0,75,0,=,2,=,2,24.3,0,21,0
2003/11/5 1:45,18.6,0,74,0,=,2,=,2,24.3,0,21,0
2003/11/5 2:00,18.5,0,75,0,=,2,=,2,24.3,0,21.1,0
2003/11/5 2:15,18.5,0,75,0,=,2,=,2,24.3,0,20.9,0
2003/11/5 2:30,18.4,0,76,0,=,2,=,2,24.3,0,20.9,0
2003/11/5 2:45,18.4,0,76,0,=,2,=,2,24.3,0,21,0
2003/11/5 3:00,18.2,0,77,0,=,2,=,2,24.3,0,21,0
2003/11/5 3:15,18.3,0,76,0,=,2,=,2,24.3,0,21.1,0
2003/11/5 3:30,18.2,0,76,0,=,2,=,2,24.3,0,21.1,0
2003/11/5 3:45,18.4,0,75,0,=,2,=,2,24.3,0,21.1,0
2003/11/5 4:00,18.4,0,75,0,=,2,=,2,24.3,0,21.2,0
2003/11/5 4:15,18.4,0,74,0,=,2,=,2,24.3,0,21.2,0
2003/11/5 4:30,18.5,0,74,0,=,2,=,2,24.3,0,21.2,0
2003/11/5 4:45,18.2,0,75,0,=,2,=,2,24.3,0,21.3,0
2003/11/5 5:00,18.2,0,76,0,=,2,=,2,24.3,0,21.3,0
2003/11/5 5:15,18.2,0,76,0,=,2,=,2,24.3,0,21.4,0
2003/11/5 5:30,18.2,0,76,0,=,2,=,2,24.3,0,21.4,0
2003/11/5 5:45,18.3,0,75,0,=,2,=,2,24.3,0,21.4,0
2003/11/5 6:00,18.3,0,75,0,=,2,=,2,24.3,0,21.5,0
2003/11/5 6:15,18.6,0,74,0,=,2,=,2,24.3,0,21.5,0
2003/11/5 6:30,18.4,0,75,0,=,2,=,2,24.3,0,21.5,0
2003/11/5 6:45,18.4,0,75,0,=,2,=,2,24.3,0,21.6,0
2003/11/5 7:00,18.6,0,74,0,=,2,=,2,24.3,0,21.6,0
2003/11/5 7:15,18.5,0,74,0,=,2,=,2,24.3,0,21.6,0
2003/11/5 7:30,18.6,0,74,0,=,2,=,2,24.3,0,21.7,0
2003/11/5 7:45,18.9,0,73,0,=,2,=,2,24.3,0,21.7,0
2003/11/5 8:00,19.1,0,72,0,=,2,=,2,24.3,0,21.5,0
2003/11/5 8:15,19.1,0,73,0,=,2,=,2,24.3,0,20.9,0
2003/11/5 8:30,19.2,0,72,0,=,2,=,2,24.3,0,20.9,0
2003/11/5 8:45,19.1,0,72,0,=,2,=,2,24.3,0,20.9,0
2003/11/5 9:00,19.3,0,71,0,=,2,=,2,24.3,0,20.1,0
2003/11/5 9:15,19.6,0,71,0,=,2,=,2,24.3,0,20.1,0
2003/11/5 9:30,19.8,0,71,0,=,2,=,2,24.2,0,20.2,0
2003/11/5 9:45,19.8,0,75,0,=,2,=,2,24.2,0,20.2,0
2003/11/5 10:00,19.7,0,75,0,=,2,=,2,24.2,0,20.3,0
2003/11/5 10:15,19.9,0,74,0,=,2,=,2,24.2,0,20.3,0
2003/11/5 10:30,19.8,0,78,0,=,2,=,2,24.2,0,20.7,0
2003/11/5 10:45,19.9,0,79,0,=,2,=,2,24.2,0,20.8,0
2003/11/5 11:00,20,0,79,0,=,2,=,2,24.2,0,20.8,0
2003/11/5 11:15,20.1,0,81,0,=,2,=,2,24.2,0,20.9,0
2003/11/5 11:30,20.4,0,80,0,=,2,=,2,24.3,0,20.9,0
2003/11/5 11:45,20.4,0,79,0,=,2,=,2,24.3,0,21,0
2003/11/5 12:00,20.3,0,79,0,=,2,=,2,24.2,0,21,0
2003/11/5 12:15,20.3,0,79,0,=,2,=,2,24.2,0,21,0
2003/11/5 12:30,20.5,0,79,0,=,2,=,2,24.2,0,21.1,0
2003/11/5 12:45,20.5,0,79,0,=,2,=,2,24.2,0,21.1,0
2003/11/5 13:00,20.5,0,79,0,=,2,=,2,24.2,0,21.1,0
2003/11/5 13:15,20.5,0,81,0,=,2,=,2,24.2,0,21.2,0
2003/11/5 13:30,20.5,0,83,0,=,2,=,2,24.2,0,21.2,0
2003/11/5 13:45,20.3,0,86,0,=,2,=,2,24.2,0,21.3,0
2003/11/5 14:00,20.1,0,88,0,=,2,=,2,24.2,0,21.3,0
2003/11/5 14:15,20,0,91,0,=,2,=,2,24.2,0,21.6,0
2003/11/5 14:30,19.6,0,94,0,=,2,=,2,24.2,0,21.6,0
2003/11/5 14:45,19.8,0,96,0,=,2,=,2,24.2,0,21.6,0
2003/11/5 15:00,19.7,0,95,0,=,2,=,2,24.3,0,21.7,0
2003/11/5 15:15,19.6,0,94,0,=,2,=,2,24.3,0,21.7,0
2003/11/5 15:30,19.6,0,94,0,=,2,=,2,24.3,0,21.8,0
2003/11/5 15:45,19.5,0,94,0,=,2,=,2,24.3,0,21.8,0
2003/11/5 16:00,19.5,0,93,0,=,2,=,2,24.3,0,21.8,0
2003/11/5 16:15,19.4,0,93,0,=,2,=,2,24.3,0,21.8,0
2003/11/5 16:30,19.8,0,89,0,=,2,=,2,24.3,0,21.9,0
2003/11/5 16:45,19.4,0,92,0,=,2,=,2,24.3,0,21.9,0
2003/11/5 17:00,19.4,0,93,0,=,2,=,2,24.3,0,21.9,0
2003/11/5 17:15,19.4,0,93,0,=,2,=,2,24.3,0,21.9,0
2003/11/5 17:30,19.6,0,91,0,=,2,=,2,24.3,0,21.7,0
2003/11/5 17:45,19.4,0,90,0,=,2,=,2,24.3,0,21.8,0
2003/11/5 18:00,19.5,0,91,0,=,2,=,2,24.3,0,21.8,0
2003/11/5 18:15,19.2,0,92,0,=,2,=,2,24.4,0,21.4,0
2003/11/5 18:30,19.2,0,93,0,=,2,=,2,24.4,0,21.4,0
2003/11/5 18:45,19.2,0,93,0,=,2,=,2,24.4,0,20.9,0
2003/11/5 19:00,19.2,0,93,0,=,2,=,2,24.4,0,20.9,0
2003/11/5 19:15,19.2,0,94,0,=,2,=,2,24.4,0,20.9,0
2003/11/5 19:30,19,0,95,0,=,2,=,2,24.4,0,21,0
2003/11/5 19:45,19.1,0,95,0,=,2,=,2,24.4,0,20.7,0
2003/11/5 20:00,19.1,0,95,0,=,2,=,2,24.4,0,20.7,0
2003/11/5 20:15,19.2,0,95,0,=,2,=,2,24.4,0,20.8,0
2003/11/5 20:30,19.2,0,95,0,=,2,=,2,24.4,0,20.8,0
2003/11/5 20:45,19.5,0,94,0,=,2,=,2,24.4,0,20.9,0
2003/11/5 21:00,19.2,0,93,0,=,2,=,2,24.4,0,20.9,0
2003/11/5 21:15,19.3,0,92,0,=,2,=,2,24.4,0,20.9,0
2003/11/5 21:30,19.2,0,91,0,=,2,=,2,24.4,0,21,0
2003/11/5 21:45,19.3,0,90,0,=,2,=,2,24.4,0,21,0
2003/11/5 22:00,19.4,0,89,0,=,2,=,2,24.4,0,21.1,0
2003/11/5 22:15,19.4,0,89,0,=,2,=,2,24.4,0,21.1,0
2003/11/5 22:30,19.4,0,89,0,=,2,=,2,24.4,0,21.1,0
2003/11/5 22:45,19.4,0,89,0,=,2,=,2,24.4,0,21.2,0